Location: Arbon
(43.0005°N, 0.7472°E)
Time: 07:38:07
(UTC+00:00)

Vanguard 1 - Pass Details

Date: 27 November 2020
Orbit: 648 x 3834 km, 34.3° (Epoch: 21 January)

Event Time Altitude Azimuth Distance (km) Brightness Sun altitude
Rises 10:12:32 0° 273° (W) 4,992 13.4 22.3°
Reaches altitude 10° 10:15:29 10° 267° (W) 4,351 13.2 22.5°
Maximum altitude 10:27:12 42° 201° (SSW) 3,578 13.9 23.3°
Drops below altitude 10° 10:45:57 10° 140° (SE) 6,756 15.6 24.3°
Sets 10:52:06 0° 135° (SE) 7,937 15.6 24.6°
